Regional Weather Roundup
Issued by NWS Charleston, WV

Home | Current Version | Previous Version | Text Only | Print | Product List | Glossary Off
Versions: 1 2 3 4 5 6 7 8 9 10 11 12 13 14 15 16 17 18 19 20 21 22 23 24 25 26 27

000
ASUS41 KRLX 230510
RWRRLX
West Virginia Regional Weather Roundup
National Weather Service Charleston WV
100 AM EDT THU OCT 23 2014

Note: "fair" indicates few or no clouds below 12,000 feet with no
significant weather and/or obstructions to visibility.

WVZ003-230600-
Northern Panhandle of West Virginia

CITY           SKY/WX    TMP DP  RH WIND       PRES   REMARKS
WHEELING       PTCLDY    43  40  89 NW6       30.18S
$$

WVZ009-230600-
Northwest West Virginia

CITY           SKY/WX    TMP DP  RH WIND       PRES   REMARKS
PARKERSBURG    CLOUDY    46  41  82 NW3       30.22F
$$

WVZ006-230600-
Western West Virginia

CITY           SKY/WX    TMP DP  RH WIND       PRES   REMARKS
HUNTINGTON     CLOUDY    48  40  73 N6        30.21F
$$

WVZ015-230600-
West Central West Virginia

CITY           SKY/WX    TMP DP  RH WIND       PRES   REMARKS
CHARLESTON     CLOUDY    48  42  80 VRB5      30.19F
$$

WVZ022-031-230600-
North Central West Virginia

CITY           SKY/WX    TMP DP  RH WIND       PRES   REMARKS
CLARKSBURG     CLOUDY    47  41  80 N7        30.15F
MORGANTOWN     CLOUDY    49  39  68 NW7       30.15F
$$

WVZ025-035-042-045-230600-
Southern West Virginia

CITY           SKY/WX    TMP DP  RH WIND       PRES   REMARKS
BECKLEY        CLOUDY    42  39  89 NW7       30.15F
LOGAN          CLOUDY    45  43  93 N5        30.19F
BLUEFIELD      CLOUDY    43  39  86 NW8       30.15F
LEWISBURG      CLOUDY    45  38  77 NW6       30.13F
$$

WVZ047-230600-
Northern Mountains of West Virginia

CITY           SKY/WX    TMP DP  RH WIND       PRES   REMARKS
ELKINS         CLOUDY    44  41  89 N8        30.14F
$$

WVZ052-230600-
Eastern Panhandle of West Virginia

CITY           SKY/WX    TMP DP  RH WIND       PRES   REMARKS
MARTINSBURG    PTCLDY    51  39  63 NW12G21   29.99F
PETERSBURG     CLOUDY    51  40  65 NW10G17   30.09F
$$



USA.gov is the U.S. government's official web portal to all federal, state and local government web resources and services.